Regional Weather Roundup
Issued by NWS

Home | Current Version | Previous Version | Graphics & Text | Print | Product List | Glossary On
Versions: 1 2 3 4 5 6 7 8 9 10 11 12 13 14 15 16 17 18 19 20 21 22 23 24 25 26 27 28 29 30 31 32 33 34 35 36 37 38 39 40 41 42 43 44 45 46 47 48 49 50
000
ASUS43 KOAX 230902
RWRNE

WEATHER ROUNDUP FOR NEBRASKA
NATIONAL WEATHER SERVICE OMAHA NE
400 AM CDT THU OCT 23 2014

NOTES: SATELLITE DATA IS BEING USED TO AUGMENT CLOUD COVER ABOVE
       12000 FEET.
       "FAIR" INDICATES FEW OR NO CLOUDS BELOW 12,000 FEET WITH NO
       SIGNIFICANT WEATHER AND/OR OBSTRUCTIONS TO VISIBILITY.

  * THESE STATIONS DO NOT REPORT WEATHER SUCH AS RAIN...SNOW OR FOG.

NEZ001>004-019>022-054>056-231000-
NEBRASKA PANHANDLE

CITY           SKY/WX    TMP DP  RH WIND       PRES   REMARKS
SCOTTSBLUFF    CLEAR     39  28  64 CALM      30.11S
ALLIANCE       CLEAR     27  23  85 W10       30.09F WCI  17
CHADRON        CLEAR     35  28  75 SW7       30.06R WCI  29
KIMBALL        CLEAR     38  34  85 W9        30.13R WCI  32
SIDNEY         CLEAR     36  32  85 SW6       30.13R WCI  31
$$

NEZ057>060-069>072-079>082-231000-
SOUTHWEST NEBRASKA

CITY           SKY/WX    TMP DP  RH WIND       PRES   REMARKS
NORTH PLATTE   FOG       46  46 100 CALM      30.09S VSB 1/4
IMPERIAL       CLEAR     41  32  70 NW5       30.10R
LEXINGTON      FOG       49  49  98 CALM      30.08R VSB 1/4
MCCOOK         CLOUDY    44  42  93 CALM      30.09S FOG
OGALLALA       CLEAR     36  32  87 W3        30.11R
$$

NEZ005>010-023>029-035>040-094-231000-
NORTH CENTRAL NEBRASKA

CITY           SKY/WX    TMP DP  RH WIND       PRES   REMARKS
VALENTINE      CLEAR     35  34  96 W3        30.05F
AINSWORTH      CLEAR     41  40  96 SW5       30.04F
BROKEN BOW     FOG       41  40  96 CALM      30.05F VSB 1/2
O`NEILL        CLEAR     41  41 100 W5        30.05S FOG
ORD            FOG       40  40 100 NW3       30.05F VSB 1/4
THEDFORD       FOG       37  37  99 W3        30.07F VSB 1/2
$$

NEZ041-046>049-061>064-073>077-083>087-231000-
SOUTH CENTRAL NEBRASKA

CITY           SKY/WX    TMP DP  RH WIND       PRES   REMARKS
GRAND ISLAND   FOG       48  46  93 CALM      30.06S VSB 1/4
AURORA         FOG       56  56 100 NW3       30.05F VSB 1/4
HASTINGS       FOG       51  49  92 CALM      30.05F VSB 1/4
HEBRON         CLOUDY    58  55  90 CALM      30.05S
HOLDREGE       FOG       48  47  97 CALM      30.07S VSB 1/4
KEARNEY *      CLOUDY    48  46  93 NW3       30.07F VSB 1/4
YORK           CLOUDY    57  57 100 N3        30.05S FOG
$$

NEZ011>018-030>034-042>045-231000-
NORTHEAST NEBRASKA

CITY           SKY/WX    TMP DP  RH WIND       PRES   REMARKS
NORFOLK        FOG       47  47 100 W5        30.04S VSB 1/4
ALBION         FOG       41  39  93 CALM      30.06S VSB 3/4
BLAIR          CLOUDY    62  60  93 S6        30.02F
COLUMBUS *     CLOUDY    46  45  93 NW5       30.06S VSB 1/4
FREMONT        MOCLDY    61  59  92 W5        30.03S
TEKAMAH        CLOUDY    61  59  93 W6        30.01F
WAYNE          FOG       46  46  99 CALM      30.04S VSB 1/4
$$

NEZ050>053-065>068-078-088>093-231000-
SOUTHEAST NEBRASKA

CITY           SKY/WX    TMP DP  RH WIND       PRES   REMARKS
LINCOLN        CLOUDY    59  57  93 S3        30.04F
OMAHA EPPLEY   CLOUDY    63  59  87 S8        30.03S
BEATRICE       CLOUDY    60  58  94 S5        30.04S
FALLS CITY     CLOUDY    60  59  96 SE8       30.06S FOG
NEBRASKA CITY  CLOUDY    61  61 100 S8        30.04S
PLATTSMOUTH    CLOUDY    60  58  93 S7        30.03F
$$

NEZ044-045-051>053-067-231000-
OMAHA AREA

CITY           SKY/WX    TMP DP  RH WIND       PRES   REMARKS
OMAHA EPPLEY   CLOUDY    63  59  87 S8        30.03S
BLAIR          CLOUDY    62  60  93 S6        30.02F
FREMONT        MOCLDY    61  59  92 W5        30.03S
MILLARD        CLOUDY    62  60  91 S3        30.03S
OFFUTT AFB     CLOUDY    62  62 100 SW5       30.03S
PLATTSMOUTH    CLOUDY    60  58  93 S7        30.03F
WAHOO          CLOUDY    60  57  90 CALM      30.02F
$$



USA.gov is the U.S. government's official web portal to all federal, state and local government web resources and services.